Location: LDNL
(36.4545°S, 141.6685°E)
Time: 11:44:40
(UTC+10:00)

Explorer 7 - Pass Details

Date: 15 August 2022
Orbit: 482 x 668 km, 50.3° (Epoch: 26 September)

Event Time Altitude Azimuth Distance (km) Brightness Sun altitude
Rises 16:03:19 0° 340° (NNW) 2,985 11.5 20.1°
Reaches altitude 10° 16:05:55 10° 352° (N) 2,089 10.5 19.6°
Maximum altitude 16:10:00 27° 49° (NE) 1,276 8.7 19.0°
Drops below altitude 10° 16:14:06 10° 107° (ESE) 2,100 9.3 18.3°
Sets 16:16:43 0° 118° (ESE) 3,004 10.0 17.9°
